| time (UTC) | temp F | wind direction | speed MPH | gust MPH | rain 1hr in | rain 24hr in | rain mn in | humidity % | barometer mb |
| 20260905234557 | 66 | 0.0 | 0.0 | 0.00 | 0.00 | 0.00 | 1 | 1008.4 | |
| 20260905233054 | 66 | 0.0 | 0.0 | 0.00 | 0.00 | 0.00 | 1 | 1008.3 | |
| 20260905231551 | 67 | 0.0 | 0.0 | 0.00 | 0.00 | 0.00 | 11 | 1008.4 | |
| 20260905230050 | 67 | 0.0 | 0.0 | 0.00 | 0.00 | 0.00 | 18 | 1008.4 | |
| 20260905224642 | 68 | 0.0 | 0.0 | 0.00 | 0.00 | 0.00 | 21 | 1008.1 | |
| 20260905223043 | 68 | 0.0 | 0.0 | 0.00 | 0.00 | 0.00 | 34 | 1008.0 | |
| 20260905221547 | 69 | 0.0 | 0.0 | 0.00 | 0.00 | 0.00 | 37 | 1007.9 | |
| 20260905220037 | 69 | 0.0 | 0.0 | 0.00 | 0.00 | 0.00 | 39 | 1007.7 | |
| 20260905214508 | 69 | 0.0 | 0.0 | 0.00 | 0.00 | 0.00 | 38 | 1007.6 | |
| 20260905213007 | 69 | 0.0 | 0.0 | 0.00 | 0.00 | 0.00 | 38 | 1007.5 | |
| 20260905211542 | 70 | 0.0 | 0.0 | 0.00 | 0.00 | 0.00 | 42 | 1007.3 | |
| 20260905210036 | 70 | 0.0 | 0.0 | 0.00 | 0.00 | 0.00 | 44 | 1007.6 | |
| 20260905204502 | 70 | 0.0 | 0.0 | 0.00 | 0.00 | 0.00 | 46 | 1007.5 | |
| 20260905203001 | 70 | 0.0 | 0.0 | 0.00 | 0.00 | 0.00 | 45 | 1007.3 | |
| 20260905201700 | 70 | 0.0 | 0.0 | 0.00 | 0.00 | 0.00 | 46 | 1007.4 | |
| 20260905200059 | 71 | 0.0 | 0.0 | 0.00 | 0.00 | 0.00 | 48 | 1007.2 | |
| 20260905194555 | 70 | 0.0 | 0.0 | 0.00 | 0.00 | 0.00 | 48 | 1007.0 | |
| 20260905193054 | 71 | 0.0 | 0.0 | 0.00 | 0.00 | 0.00 | 46 | 1006.9 | |
| 20260905191527 | 72 | 0.0 | 0.0 | 0.00 | 0.00 | 0.00 | 45 | 1007.0 | |
| 20260905190021 | 71 | 0.0 | 0.0 | 0.00 | 0.00 | 0.00 | 45 | 1007.1 | |
| 20260905184518 | 71 | 0.0 | 0.0 | 0.00 | 0.00 | 0.00 | 45 | 1007.3 | |
| 20260905183018 | 70 | 0.0 | 0.0 | 0.00 | 0.00 | 0.00 | 43 | 1007.2 | |
| 20260905181515 | 69 | 0.0 | 0.0 | 0.00 | 0.00 | 0.00 | 33 | 1007.3 | |
| 20260905180014 | 67 | 0.0 | 0.0 | 0.00 | 0.00 | 0.00 | 28 | 1007.3 | |
| 20260905174511 | 67 | 0.0 | 0.0 | 0.00 | 0.00 | 0.00 | 33 | 1007.2 | |
| 20260905173007 | 71 | 0.0 | 0.0 | 0.00 | 0.00 | 0.00 | 48 | 1007.1 | |
| 20260905171505 | 71 | 0.0 | 0.0 | 0.00 | 0.00 | 0.00 | 46 | 1007.0 | |
| 20260905170007 | 70 | 0.0 | 0.0 | 0.00 | 0.00 | 0.00 | 46 | 1007.0 | |
| 20260905164604 | 70 | 0.0 | 0.0 | 0.00 | 0.00 | 0.00 | 46 | 1007.2 | |
| 20260905163054 | 70 | 0.0 | 0.0 | 0.00 | 0.00 | 0.00 | 47 | 1007.2 | |
| 20260905161549 | 71 | 0.0 | 0.0 | 0.00 | 0.00 | 0.00 | 47 | 1007.2 | |
| 20260905160045 | 70 | 0.0 | 0.0 | 0.00 | 0.00 | 0.00 | 47 | 1007.3 | |
| 20260905154539 | 71 | 0.0 | 0.0 | 0.00 | 0.00 | 0.00 | 45 | 1007.3 | |
| 20260905153034 | 71 | 0.0 | 0.0 | 0.00 | 0.00 | 0.00 | 44 | 1007.4 | |
| 20260905151536 | 70 | 0.0 | 0.0 | 0.00 | 0.00 | 0.00 | 43 | 1007.6 | |
| 20260905150026 | 68 | 0.0 | 0.0 | 0.00 | 0.00 | 0.00 | 39 | 1007.6 | |
| 20260905144554 | 68 | 0.0 | 0.0 | 0.00 | 0.00 | 0.00 | 35 | 1007.6 | |
| 20260905143049 | 68 | 0.0 | 0.0 | 0.00 | 0.00 | 0.00 | 35 | 1007.6 | |
| 20260905141513 | 68 | 0.0 | 0.0 | 0.00 | 0.00 | 0.00 | 34 | 1007.6 | |
| 20260905140009 | 67 | 0.0 | 0.0 | 0.00 | 0.00 | 0.00 | 29 | 1007.6 | |
| 20260905134501 | 67 | 0.0 | 0.0 | 0.00 | 0.00 | 0.00 | 30 | 1007.7 | |
| 20260905133058 | 66 | 0.0 | 0.0 | 0.00 | 0.00 | 0.00 | 23 | 1007.8 | |
| 20260905131555 | 66 | 0.0 | 0.0 | 0.00 | 0.00 | 0.00 | 16 | 1007.9 | |
| 20260905130049 | 65 | 0.0 | 0.0 | 0.00 | 0.00 | 0.00 | 14 | 1008.0 | |
| 20260905124541 | 64 | 0.0 | 0.0 | 0.00 | 0.00 | 0.00 | 1 | 1007.9 | |
| 20260905123036 | 64 | 0.0 | 0.0 | 0.00 | 0.00 | 0.00 | 1 | 1007.9 | |
| 20260905121534 | 63 | 0.0 | 0.0 | 0.00 | 0.00 | 0.00 | 1 | 1007.7 | |
| 20260905120028 | 63 | 0.0 | 0.0 | 0.00 | 0.00 | 0.00 | 1 | 1007.4 | |
| 20260905114523 | 62 | 0.0 | 0.0 | 0.00 | 0.00 | 0.00 | 1 | 1007.3 | |
| 20260905113052 | 62 | 0.0 | 0.0 | 0.00 | 0.00 | 0.00 | 1 | 1007.0 | |
| 20260905111552 | 62 | 0.0 | 0.0 | 0.00 | 0.00 | 0.00 | 1 | 1006.9 | |
| 20260905110044 | 61 | 0.0 | 0.0 | 0.00 | 0.00 | 0.00 | 1 | 1006.7 | |
| 20260905104534 | 61 | 0.0 | 0.0 | 0.00 | 0.00 | 0.00 | 1 | 1006.7 | |
| 20260905103032 | 60 | 0.0 | 0.0 | 0.00 | 0.00 | 0.00 | 1 | 1006.4 | |
| 20260905101525 | 60 | 0.0 | 0.0 | 0.00 | 0.00 | 0.00 | 1 | 1006.2 | |
| 20260905100019 | 60 | 0.0 | 0.0 | 0.00 | 0.00 | 0.00 | 1 | 1006.2 | |
| 20260905094515 | 60 | 0.0 | 0.0 | 0.00 | 0.00 | 0.00 | 1 | 1006.3 | |
| 20260905093010 | 61 | 0.0 | 0.0 | 0.00 | 0.00 | 0.00 | 1 | 1006.2 | |
| 20260905091505 | 61 | 0.0 | 0.0 | 0.00 | 0.00 | 0.00 | 1 | 1006.2 | |
| 20260905090033 | 61 | 0.0 | 0.0 | 0.00 | 0.00 | 0.00 | 1 | 1006.2 | |
| 20260905084527 | 61 | 0.0 | 0.0 | 0.00 | 0.00 | 0.00 | 1 | 1006.1 | |
| 20260905083054 | 61 | 0.0 | 0.0 | 0.00 | 0.00 | 0.00 | 1 | 1006.2 | |
| 20260905081549 | 61 | 0.0 | 0.0 | 0.00 | 0.00 | 0.00 | 1 | 1006.2 | |
| 20260905080043 | 62 | 0.0 | 0.0 | 0.00 | 0.00 | 0.00 | 1 | 1006.3 | |
| 20260905074543 | 62 | 0.0 | 0.0 | 0.00 | 0.00 | 0.00 | 1 | 1006.4 | |
| 20260905073039 | 62 | 0.0 | 0.0 | 0.00 | 0.00 | 0.00 | 1 | 1006.3 | |
| 20260905071530 | 62 | 0.0 | 0.0 | 0.00 | 0.00 | 0.00 | 1 | 1006.4 | |
| 20260905070025 | 63 | 0.0 | 0.0 | 0.00 | 0.00 | 0.00 | 1 | 1006.5 | |
| 20260905064522 | 62 | 0.0 | 0.0 | 0.00 | 0.00 | 0.00 | 1 | 1006.6 | |
| 20260905063017 | 62 | 0.0 | 0.0 | 0.00 | 0.00 | 0.00 | 1 | 1006.7 | |
| 20260905061519 | 62 | 0.0 | 0.0 | 0.00 | 0.00 | 0.00 | 1 | 1006.9 | |
| 20260905060037 | 63 | 0.0 | 0.0 | 0.00 | 0.00 | 0.00 | 1 | 1007.0 | |
| 20260905054536 | 63 | 0.0 | 0.0 | 0.00 | 0.00 | 0.00 | 1 | 1006.8 | |
| 20260905053025 | 64 | 0.0 | 0.0 | 0.00 | 0.00 | 0.00 | 1 | 1006.8 | |
| 20260905051522 | 64 | 0.0 | 0.0 | 0.00 | 0.00 | 0.00 | 1 | 1007.0 | |
| 20260905050016 | 65 | 0.0 | 0.0 | 0.00 | 0.00 | 0.00 | 2 | 1007.2 | |
| 20260905044512 | 66 | 0.0 | 0.0 | 0.00 | 0.00 | 0.00 | 13 | 1007.1 | |
| 20260905043005 | 66 | 0.0 | 0.0 | 0.00 | 0.00 | 0.00 | 18 | 1007.1 | |
| 20260905041501 | 66 | 0.0 | 0.0 | 0.00 | 0.00 | 0.00 | 17 | 1007.1 | |
| 20260905040056 | 66 | 0.0 | 0.0 | 0.00 | 0.00 | 0.00 | 17 | 1007.0 | |
| 20260905034607 | 66 | 0.0 | 0.0 | 0.00 | 0.00 | 0.00 | 15 | 1007.1 | |
| 20260905033019 | 66 | 0.0 | 0.0 | 0.00 | 0.00 | 0.00 | 13 | 1007.0 | |
| 20260905031516 | 66 | 0.0 | 0.0 | 0.00 | 0.00 | 0.00 | 8 | 1007.1 | |
| 20260905030013 | 65 | 0.0 | 0.0 | 0.00 | 0.00 | 0.00 | 7 | 1007.1 | |
| 20260905024511 | 65 | 0.0 | 0.0 | 0.00 | 0.00 | 0.00 | 7 | 1007.1 | |
| 20260905023009 | 66 | 0.0 | 0.0 | 0.00 | 0.00 | 0.00 | 12 | 1007.0 | |
| 20260905021512 | 66 | 0.0 | 0.0 | 0.00 | 0.00 | 0.00 | 20 | 1007.2 | |
| 20260905020005 | 66 | 0.0 | 0.0 | 0.00 | 0.00 | 0.00 | 16 | 1007.2 | |
| 20260905014505 | 65 | 0.0 | 0.0 | 0.00 | 0.00 | 0.00 | 14 | 1007.5 | |
| 20260905013003 | 66 | 0.0 | 0.0 | 0.00 | 0.00 | 0.00 | 21 | 1007.4 | |
| 20260905011559 | 67 | 0.0 | 0.0 | 0.00 | 0.00 | 0.00 | 28 | 1007.4 | |
| 20260905010100 | 67 | 0.0 | 0.0 | 0.00 | 0.00 | 0.00 | 30 | 1007.3 | |
| 20260905004633 | 68 | 0.0 | 0.0 | 0.00 | 0.00 | 0.00 | 36 | 1007.3 | |
| 20260905003049 | 68 | 0.0 | 0.0 | 0.00 | 0.00 | 0.00 | 41 | 1007.2 | |
| 20260905001556 | 69 | 0.0 | 0.0 | 0.00 | 0.00 | 0.00 | 45 | 1007.0 | |
| 20260905000050 | 69 | 0.0 | 0.0 | 0.00 | 0.00 | 0.00 | 47 | 1007.0 |